Weather History for WARS - June, 2014

Change the Weather History Date:

Tuesday, June 3, 2014

  Actual Average Record
Temperature  
Mean Temperature 86 °F -  
Max Temperature 95 °F - - ()
Min Temperature 78 °F - - ()
Cooling Degree Days 22    
Growing Degree Days 36 (Base 50)    
Moisture  
Dew Point 75 °F    
Average Humidity 70    
Maximum Humidity 94    
Minimum Humidity 44    
Precipitation  
Precipitation 0.00 in - - ()
Sea Level Pressure  
Sea Level Pressure 29.74 in    
Wind  
Wind Speed 5 mph ()    
Max Wind Speed 13 mph    
Max Gust Speed -    
Visibility 4.0 miles    
Events Rain    
T = Trace of Precipitation, MM = Missing Value Source: Averaged Metar Reports

Daily Weather History Graph

Daily Weather History Graph

Search for Another Location

Airport or City:

Trip Planner

Search our weather history database for the weather conditions in past years. The results will help you decide how hot, cold, wet, or windy it might be!

Date:

Astronomy

Jun. 03, 2014 Rise Set
Actual Time 5:44 AM WIB 5:28 PM WIB
Civil Twilight 5:21 AM WIB 5:51 PM WIB
Nautical Twilight 4:55 AM WIB 6:17 PM WIB
Astronomical Twilight 4:29 AM WIB 6:43 PM WIB
Moon 9:53 AM WIB (6/3) 10:02 PM WIB (6/3)
Length of Visible Light 12h 29m
Length of Day
11h 44m
Waxing Crescent, 26% of the Moon is Illuminated
Jun 3
Waxing Crescent
Jun 6
First Quarter
Jun 13
Full
Jun 20
Last Quarter
Jun 27
New

Hourly Weather History & Observations

Time (WIB) Temp. Heat Index Dew Point Humidity Pressure Visibility Wind Dir Wind Speed Gust Speed Precip Events Conditions
4:00 AM 78.8 °F - 73.4 °F 83% 29.74 in 3.7 mi SSE 3.5 mph - N/A   Partly Cloudy
4:30 AM 78.8 °F - 73.4 °F 83% 29.74 in 3.7 mi South 2.3 mph - N/A   Partly Cloudy
5:00 AM 78.8 °F - 73.4 °F 83% 29.77 in 3.7 mi South 2.3 mph - N/A   Partly Cloudy
5:30 AM 78.8 °F - 73.4 °F 83% 29.77 in 3.1 mi SSE 2.3 mph - N/A   Haze
6:00 AM 78.8 °F - 73.4 °F 83% 29.77 in 3.1 mi SSE 3.5 mph - N/A   Haze
6:30 AM 78.8 °F - 73.4 °F 83% 29.77 in 3.1 mi SSE 3.5 mph - N/A   Haze
7:00 AM 80.6 °F 85.4 °F 73.4 °F 79% 29.77 in 3.1 mi SE 4.6 mph - N/A   Haze
7:30 AM 82.4 °F 88.2 °F 73.4 °F 74% 29.80 in 3.1 mi East 4.6 mph - N/A   Haze
8:30 AM 86.0 °F 93.4 °F 73.4 °F 66% 29.80 in 3.7 mi East 9.2 mph - N/A   Partly Cloudy
9:00 AM 87.8 °F 93.8 °F 71.6 °F 58% 29.77 in 4.3 mi East 9.2 mph - N/A   Partly Cloudy
9:30 AM 87.8 °F 95.6 °F 73.4 °F 62% 29.77 in 4.3 mi East 9.2 mph - N/A   Partly Cloudy
10:00 AM 89.6 °F 96.2 °F 71.6 °F 55% 29.77 in 4.3 mi East 9.2 mph - N/A   Partly Cloudy
10:30 AM 89.6 °F 96.2 °F 71.6 °F 55% 29.77 in 4.3 mi ENE 5.8 mph - N/A   Partly Cloudy
11:00 AM 91.4 °F 100.1 °F 73.4 °F 55% 29.74 in 4.3 mi East 6.9 mph - N/A   Partly Cloudy
12:00 PM 91.4 °F 102.5 °F 75.2 °F 59% 29.71 in 4.3 mi NNE 11.5 mph - N/A   Scattered Clouds
12:30 PM 93.2 °F 107.2 °F 77.0 °F 59% 29.71 in 4.3 mi North 11.5 mph - N/A   Partly Cloudy
1:00 PM 91.4 °F 100.1 °F 73.4 °F 55% 29.71 in 4.3 mi NE 9.2 mph - N/A   Scattered Clouds
1:30 PM 93.2 °F 102.4 °F 73.4 °F 52% 29.68 in 4.3 mi NE 10.4 mph - N/A   Scattered Clouds
2:00 PM 91.4 °F 100.1 °F 73.4 °F 55% 29.68 in 4.3 mi NNE 9.2 mph - N/A   Scattered Clouds
2:30 PM 95.0 °F 101.3 °F 69.8 °F 44% 29.68 in 4.3 mi NE 9.2 mph - N/A   Scattered Clouds
3:00 PM 91.4 °F 102.5 °F 75.2 °F 59% 29.71 in 4.3 mi NNE 10.4 mph - N/A   Scattered Clouds
3:30 PM 87.8 °F 99.7 °F 77.0 °F 70% 29.68 in 4.3 mi North 12.7 mph - N/A   Scattered Clouds
4:00 PM 87.8 °F 99.7 °F 77.0 °F 70% 29.68 in 4.3 mi North 12.7 mph - N/A   Scattered Clouds
4:30 PM 87.8 °F 99.7 °F 77.0 °F 70% 29.68 in 4.3 mi North 11.5 mph - N/A   Scattered Clouds
5:00 PM 87.8 °F 99.7 °F 77.0 °F 70% 29.71 in 4.3 mi North 9.2 mph - N/A   Scattered Clouds
5:30 PM 86.0 °F 96.9 °F 77.0 °F 74% 29.71 in 4.3 mi North 9.2 mph - N/A   Scattered Clouds
6:00 PM 86.0 °F 96.9 °F 77.0 °F 74% 29.71 in 4.3 mi NNE 5.8 mph - N/A   Scattered Clouds
6:30 PM 86.0 °F 96.9 °F 77.0 °F 74% 29.71 in 4.3 mi North 3.5 mph - N/A   Scattered Clouds
7:00 PM 86.0 °F 99.3 °F 78.8 °F 79% 29.74 in 4.3 mi West 2.3 mph - N/A   Scattered Clouds
7:30 PM 84.2 °F 94.1 °F 77.0 °F 79% 29.74 in 4.3 mi SW 3.5 mph - N/A   Scattered Clouds
8:00 PM 86.0 °F 96.9 °F 77.0 °F 74% 29.74 in 4.3 mi SSW 3.5 mph - N/A   Scattered Clouds
8:30 PM 80.6 °F 88.1 °F 78.8 °F 94% 29.77 in 2.5 mi SW 4.6 mph - N/A Rain Light Rain
9:00 PM 80.6 °F 88.1 °F 78.8 °F 94% 29.77 in 3.1 mi SW 4.6 mph - N/A   Scattered Clouds